Torna al catalogo

ONEWEB-0688

AttivoComunicazioniPO
NORAD 61596·PAYLOAD·🇬🇧 United Kingdom

Lanciato Oct 20, 2024 da Vandenberg Space Force Base

Loading…

Prossimi Passaggi (prossime 24 ore)

TLE

AggiornatoSource: CelesTrak SupGP

Epoca: Sep 14, 2026, 08:32 UTC

1 61596C 24188C   26257.35574488 -.00002622  00000+0 -67613-2 0  2571
2 61596  87.9200 348.1652 0002961 120.2181 349.7148 13.17652297    17

Traccia ONEWEB-0688 in tempo reale con AllMySat

Download on the App Store